Wind_Speed
77 78 77 67 55 61 70 60 77 81 74 72 68 66 62 59 58 57 50 42 40 41 39 37 38 31 26 23 34 36 35 32 26 22 23 22 20 18 17 15 13 12 13 12 12
78 80 75 84 60 56 63 67 58 77 71 71 69 64 65 62 59 58 51 48 46 45 42 40 34 34 33 28 28 39 35 31 28 24 26 24 24 22 20 18 16 14 14 13 12
79 81 79 75 61 54 59 62 57 60 67 67 66 62 63 64 62 56 54 50 48 45 40 37 38 42 36 27 27 34 37 35 32 28 28 26 25 24 22 21 21 19 17 15 14
76 81 79 79 79 58 62 58 54 51 63 62 63 64 63 65 63 56 56 52 47 46 42 40 42 41 41 38 31 31 35 40 37 32 31 28 30 26 24 26 21 20 17 16 17
63 75 74 86 83 59 62 62 55 47 54 60 60 60 65 69 63 55 57 53 48 45 41 41 42 40 38 35 31 35 38 41 41 35 34 34 31 30 29 26 23 20 20 19 17
62 64 73 80 77 54 59 60 58 50 51 58 58 55 60 65 56 54 55 55 50 46 44 41 40 41 39 39 34 28 37 39 43 39 36 37 36 33 30 27 25 24 22 21 20
59 59 72 73 75 61 59 60 58 52 50 51 52 57 61 58 58 55 56 54 50 48 45 41 41 42 39 35 38 35 34 40 41 43 39 40 40 33 33 31 28 26 24 22 21
52 58 64 68 73 68 49 59 56 50 50 49 52 53 59 55 53 57 53 53 51 49 47 45 42 43 41 41 40 38 33 42 40 43 41 43 38 36 34 32 31 28 26 23 21
49 54 64 70 69 58 60 60 55 49 50 53 51 53 54 54 51 52 51 51 52 51 49 46 42 45 46 46 36 40 31 33 41 45 44 44 39 40 38 36 34 30 28 27 25
48 54 60 73 75 55 57 55 55 52 56 57 64 66 59 52 50 47 49 49 50 53 50 48 47 47 46 48 54 45 36 34 44 43 45 43 40 41 41 38 36 33 32 29 26
47 52 59 69 77 61 56 59 69 61 50 60 64 49 53 58 55 51 49 47 48 51 54 51 50 51 49 44 42 42 47 35 34 33 40 39 43 44 44 42 40 36 32 30 28
48 51 56 58 85 64 55 63 45 51 61 60 60 57 55 60 58 54 52 52 49 49 50 49 51 47 43 44 47 49 37 38 33 35 39 37 42 47 49 46 42 39 37 35 36
50 52 51 54 68 79 55 61 50 71 62 62 65 62 63 64 60 60 57 49 51 48 48 48 48 47 44 44 46 45 46 43 45 40 42 38 39 52 52 50 47 44 42 42 38
51 55 52 50 68 79 59 57 65 53 61 72 64 59 67 66 65 64 63 59 54 48 50 53 46 47 44 46 44 48 47 46 52 50 48 42 48 51 55 55 50 47 45 41 38
53 55 51 53 66 56 62 74 48 56 66 61 62 63 62 69 65 67 66 64 55 51 52 49 45 43 44 42 46 48 44 50 48 49 49 49 50 41 60 58 54 50 47 42 40
54 55 50 59 58 68 71 71 52 68 69 60 66 66 68 70 67 68 70 65 59 60 60 53 49 45 42 45 47 48 48 49 53 52 56 56 56 58 56 60 55 53 48 44 43
53 55 62 57 62 69 63 65 69 65 54 51 51 57 62 64 68 68 67 67 65 58 58 54 51 46 47 52 52 49 48 51 52 56 61 55 56 56 44 61 57 54 48 46 47
57 58 67 58 64 68 69 78 77 75 65 45 49 59 62 66 66 67 67 65 65 62 58 52 51 46 48 47 48 45 49 54 54 57 53 57 51 45 34 52 61 60 54 54 53
59 61 61 71 69 67 75 79 82 56 67 66 55 49 62 64 64 66 64 60 61 62 58 54 56 53 53 51 50 51 51 48 53 57 56 47 45 44 39 41 55 63 59 55 53
58 66 71 69 69 81 70 67 82 79 78 51 60 58 49 57 65 64 62 60 59 58 61 59 57 58 55 55 57 53 46 51 52 52 54 53 51 51 47 41 44 60 61 55 52
58 74 77 74 78 63 81 69 73 69 70 68 69 52 51 47 60 61 59 58 61 59 58 60 58 57 61 59 52 51 51 52 50 53 54 54 58 54 56 50 45 51 60 57 51
59 62 66 62 73 66 74 72 78 71 70 63 61 53 43 41 48 49 48 50 54 53 53 52 54 59 58 57 55 55 55 55 52 51 55 55 47 49 53 51 44 47 56 57 47
62 70 73 56 74 77 77 71 68 70 68 68 67 67 52 41 38 40 42 45 46 46 47 51 49 50 54 58 55 56 57 56 54 55 54 58 52 51 49 50 48 49 61 60 55
56 66 70 61 52 69 75 71 74 69 68 69 65 55 52 46 39 35 36 38 41 39 41 41 44 43 48 49 50 54 55 57 58 56 53 56 50 54 52 49 51 51 46 48 53
50 53 65 65 59 62 73 67 77 67 68 61 57 52 44 41 43 39 40 38 36 38 39 38 37 39 42 44 46 48 52 52 52 46 53 49 60 55 50 50 51 48 43 42 43
47 50 60 59 63 62 65 72 69 65 58 54 51 45 41 41 39 38 44 45 40 40 41 37 37 40 41 42 45 47 50 53 53 49 49 57 55 52 46 47 52 53 37 37 36
44 49 59 70 59 59 59 69 64 58 54 51 45 43 40 45 44 41 40 36 35 39 37 37 36 41 42 39 40 45 42 44 46 48 48 53 51 55 52 45 47 56 51 44 41
Wind_Direction
233 231 224 218 219 231 228 233 236 228 227 225 224 225 223 219 217 222 224 219 212 216 220 222 215 206 224 233 222 224 224 227 223 209 211 210 206 207 207 197 190 172 173 165 161
232 231 227 223 221 215 229 234 235 233 230 227 225 225 225 222 218 216 222 222 216 217 218 220 222 216 209 224 229 228 227 231 228 214 212 212 204 204 201 193 187 182 181 168 171
229 230 227 222 210 208 223 227 232 233 230 228 227 223 224 226 221 214 221 223 221 219 219 221 222 218 215 222 230 229 229 229 232 218 213 212 208 204 205 198 191 188 188 177 182
224 225 227 216 215 204 212 217 224 223 226 227 229 224 225 225 226 213 218 221 219 219 218 220 224 221 222 222 215 230 227 230 231 225 212 210 207 206 204 202 199 192 190 186 185
225 223 224 214 212 199 216 211 215 218 220 222 224 223 225 224 224 214 216 219 221 222 218 219 223 226 227 223 214 232 230 231 231 228 214 215 208 205 209 205 196 194 195 192 195
224 223 221 220 221 206 206 208 212 213 213 221 222 221 225 230 221 215 215 217 218 221 225 224 224 224 222 221 218 231 232 237 232 228 221 215 211 209 210 210 196 195 201 198 195
225 220 219 220 215 202 191 202 212 211 208 208 214 221 226 226 221 218 214 216 217 221 223 224 227 227 225 224 227 229 225 228 234 225 222 219 219 208 210 212 198 198 200 205 199
221 218 219 221 214 209 204 206 205 201 200 204 208 217 224 222 222 224 216 215 217 219 220 224 226 226 220 229 234 237 236 231 231 236 221 224 217 218 211 212 205 202 199 205 205
216 214 213 217 216 199 192 194 202 205 201 198 198 211 218 218 218 220 222 220 218 220 221 220 222 222 226 225 233 237 238 239 232 236 231 225 216 219 216 212 211 205 202 206 209
208 208 210 217 202 193 187 190 203 196 195 196 202 201 220 223 222 218 219 221 219 222 217 216 223 229 229 221 225 232 237 236 232 234 244 225 221 222 221 214 215 209 208 209 210
203 204 208 213 202 185 184 190 193 190 198 198 207 218 220 227 215 217 217 221 218 221 222 220 223 231 231 230 234 233 240 238 227 229 238 243 220 222 224 220 216 216 214 213 212
199 202 204 210 202 192 186 189 194 197 197 208 206 213 209 213 215 217 211 212 216 220 226 225 231 228 227 229 239 235 229 224 237 244 237 241 224 221 223 223 217 216 217 216 215
196 197 198 203 208 200 195 184 196 204 200 197 205 213 203 203 204 203 209 210 210 212 220 225 227 226 228 229 233 231 236 250 243 240 243 242 238 219 224 222 218 217 218 218 217
193 197 196 197 204 211 189 178 202 199 201 207 203 204 203 201 202 202 204 205 206 209 209 212 216 220 223 227 235 241 240 241 245 236 245 251 238 223 221 226 223 220 221 222 222
194 193 193 201 203 199 189 188 198 203 199 200 200 201 200 200 201 201 203 203 207 209 212 218 215 218 220 223 228 238 238 240 244 242 245 247 251 225 222 222 223 222 222 222 223
196 189 188 183 198 189 183 183 189 194 191 191 205 203 199 200 201 204 205 201 203 206 207 211 216 216 221 223 227 232 236 240 242 242 248 249 258 234 228 227 224 222 223 223 225
195 187 179 181 200 198 197 202 202 200 194 199 198 197 195 201 201 206 205 204 204 207 209 208 213 217 220 223 228 233 236 234 239 241 249 252 253 240 231 230 224 224 222 224 227
191 185 180 176 182 185 190 201 205 200 202 197 204 199 203 204 208 208 205 208 210 213 215 216 219 220 219 222 229 232 237 239 244 244 256 259 254 237 236 236 231 226 225 223 224
189 184 181 178 185 193 200 200 204 203 211 215 208 201 204 208 211 212 211 211 211 214 215 215 218 219 214 215 222 227 232 237 241 243 253 256 249 245 249 250 242 232 229 230 229
196 188 175 181 188 191 200 201 204 212 212 209 213 214 204 208 209 212 215 210 210 215 219 219 225 223 221 223 224 225 228 234 236 244 249 260 253 246 253 260 251 237 237 234 235
199 184 167 176 182 184 200 197 202 206 208 215 213 211 218 221 213 213 216 213 215 219 223 224 222 224 227 227 226 230 230 231 237 239 248 259 254 249 258 265 261 245 237 235 236
201 187 165 171 180 188 195 197 202 204 207 210 212 211 198 207 212 221 224 225 224 227 228 231 228 229 229 230 232 231 232 233 238 242 248 251 253 258 260 261 259 251 241 236 235
197 193 179 173 185 194 196 203 203 205 206 211 214 213 216 221 217 222 224 223 224 229 231 233 234 236 236 234 230 230 234 235 234 239 244 247 249 251 261 265 262 251 240 239 238
206 206 197 183 179 188 194 200 202 201 206 210 215 217 214 217 221 218 219 222 228 229 230 231 235 239 242 243 244 242 241 237 234 238 248 251 252 254 260 261 255 251 245 242 236
210 211 199 192 181 190 196 201 200 205 204 209 211 212 212 212 212 214 211 218 222 224 231 235 232 235 236 241 244 245 242 244 247 246 248 251 254 252 253 256 252 245 240 238 233
210 209 208 193 183 187 194 198 200 203 207 210 212 210 210 215 220 224 219 216 225 223 224 229 233 233 234 238 241 240 240 244 245 242 248 245 250 251 250 247 248 237 218 224 223
210 209 209 194 183 187 192 197 199 200 198 202 202 201 204 206 208 214 214 221 226 227 226 230 235 234 237 240 249 244 244 247 249 249 250 250 253 253 255 253 247 242 227 214 224
Height
5589 5599 5614 5623 5631 5639 5653 5661 5669 5682 5696 5708 5718 5727 5738 5748 5757 5763 5771 5783 5788 5791 5794 5803 5805 5806 5811 5817 5822 5826 5831 5835 5839 5843 5846 5849 5851 5853 5855 5856 5857 5858 5859 5860 5860
5575 5584 5598 5609 5619 5628 5641 5652 5659 5672 5686 5698 5708 5718 5728 5738 5749 5759 5768 5775 5784 5786 5791 5798 5801 5804 5806 5813 5817 5821 5828 5834 5837 5841 5844 5846 5848 5850 5853 5855 5857 5857 5859 5859 5861
5559 5569 5582 5597 5608 5618 5629 5640 5650 5661 5674 5687 5698 5709 5720 5728 5741 5755 5759 5767 5776 5780 5784 5791 5795 5799 5801 5805 5811 5815 5825 5829 5834 5838 5841 5844 5848 5848 5851 5853 5854 5854 5859 5859 5862
5543 5555 5567 5584 5592 5608 5620 5630 5641 5651 5663 5677 5687 5700 5710 5720 5732 5744 5752 5759 5767 5772 5778 5785 5789 5792 5796 5801 5804 5812 5818 5823 5828 5834 5837 5841 5842 5846 5848 5850 5854 5854 5857 5859 5861
5531 5541 5555 5570 5582 5596 5611 5620 5631 5642 5653 5666 5679 5690 5700 5711 5724 5737 5745 5752 5759 5767 5773 5780 5784 5788 5793 5800 5803 5808 5814 5819 5823 5829 5834 5837 5840 5842 5845 5848 5852 5854 5855 5858 5861
5520 5531 5545 5557 5572 5589 5602 5611 5622 5633 5644 5658 5669 5680 5693 5704 5718 5729 5736 5745 5753 5760 5768 5774 5779 5784 5790 5795 5799 5803 5809 5814 5818 5823 5830 5834 5835 5838 5844 5847 5849 5850 5854 5857 5859
5510 5523 5534 5547 5563 5579 5590 5607 5617 5627 5637 5650 5661 5671 5684 5697 5707 5717 5728 5737 5745 5754 5762 5768 5774 5779 5785 5791 5794 5798 5802 5806 5811 5815 5824 5830 5831 5837 5840 5845 5846 5848 5852 5856 5859
5501 5514 5526 5539 5554 5569 5583 5600 5611 5620 5631 5643 5652 5663 5673 5686 5697 5710 5720 5730 5737 5745 5753 5761 5767 5771 5779 5785 5790 5792 5796 5802 5807 5811 5818 5824 5832 5836 5836 5841 5844 5845 5849 5853 5857
5492 5506 5519 5531 5547 5564 5579 5594 5605 5614 5625 5634 5642 5651 5662 5676 5689 5700 5710 5722 5731 5738 5745 5752 5759 5764 5771 5777 5783 5787 5791 5797 5803 5806 5811 5816 5828 5829 5832 5838 5840 5844 5846 5850 5852
5484 5498 5511 5524 5542 5556 5572 5586 5598 5605 5614 5624 5632 5639 5653 5672 5683 5693 5702 5712 5722 5730 5738 5743 5750 5757 5763 5767 5768 5780 5787 5791 5795 5801 5805 5810 5823 5825 5829 5833 5838 5840 5843 5847 5851
5478 5491 5505 5518 5534 5550 5565 5572 5580 5588 5597 5610 5622 5638 5652 5662 5670 5682 5692 5702 5712 5720 5728 5736 5743 5752 5759 5765 5769 5776 5779 5785 5788 5791 5797 5804 5814 5819 5824 5828 5831 5837 5841 5845 5849
5472 5485 5498 5510 5527 5541 5551 5564 5587 5593 5601 5601 5616 5629 5640 5651 5661 5670 5681 5692 5702 5713 5722 5730 5738 5746 5754 5758 5762 5769 5775 5779 5783 5786 5789 5795 5805 5811 5814 5823 5826 5831 5835 5840 5841
5467 5478 5491 5504 5516 5528 5548 5565 5576 5578 5593 5602 5613 5623 5630 5640 5651 5663 5672 5684 5693 5703 5714 5722 5730 5738 5746 5751 5756 5763 5769 5774 5778 5779 5781 5786 5791 5801 5806 5813 5817 5823 5829 5831 5835
5460 5472 5483 5494 5510 5525 5541 5559 5570 5581 5588 5593 5602 5609 5619 5632 5643 5652 5663 5674 5682 5695 5705 5711 5721 5731 5738 5745 5752 5757 5764 5767 5767 5770 5773 5779 5783 5793 5797 5806 5811 5816 5822 5829 5832
5456 5468 5478 5494 5509 5523 5540 5554 5562 5574 5575 5583 5592 5603 5614 5623 5639 5643 5656 5665 5677 5688 5696 5707 5716 5724 5731 5740 5743 5748 5756 5756 5761 5763 5765 5773 5772 5787 5790 5795 5803 5810 5815 5822 5828
5451 5462 5474 5489 5502 5519 5532 5547 5559 5562 5560 5569 5581 5592 5605 5618 5627 5637 5645 5658 5668 5678 5687 5698 5709 5715 5724 5730 5733 5738 5746 5749 5754 5755 5754 5770 5768 5773 5785 5790 5798 5803 5809 5816 5820
5447 5457 5472 5487 5505 5517 5528 5536 5542 5544 5552 5564 5580 5592 5602 5612 5620 5631 5643 5651 5658 5672 5680 5690 5696 5708 5714 5717 5721 5734 5739 5740 5744 5743 5748 5757 5757 5765 5776 5784 5791 5795 5801 5809 5813
5443 5454 5467 5483 5495 5509 5521 5528 5532 5536 5544 5561 5578 5587 5595 5606 5616 5625 5632 5645 5657 5667 5674 5681 5690 5698 5706 5711 5721 5724 5729 5733 5734 5738 5744 5744 5750 5757 5769 5776 5784 5789 5792 5796 5801
5439 5449 5465 5478 5492 5502 5508 5510 5520 5527 5544 5560 5571 5578 5589 5600 5613 5622 5635 5643 5651 5661 5668 5676 5683 5689 5695 5700 5707 5711 5716 5726 5726 5730 5731 5735 5749 5748 5758 5768 5775 5782 5785 5792 5796
5432 5442 5458 5471 5485 5496 5499 5508 5521 5530 5544 5555 5566 5576 5587 5601 5610 5619 5628 5640 5646 5653 5658 5666 5670 5679 5685 5687 5690 5700 5712 5713 5717 5723 5726 5733 5740 5746 5751 5762 5765 5773 5780 5785 5789
5424 5434 5451 5463 5475 5481 5490 5504 5518 5530 5543 5552 5564 5576 5587 5595 5605 5614 5625 5632 5639 5646 5650 5656 5662 5670 5672 5676 5687 5695 5697 5700 5710 5714 5718 5725 5731 5743 5745 5752 5754 5758 5768 5775 5779
5418 5428 5439 5449 5462 5469 5486 5500 5512 5525 5536 5548 5561 5573 5583 5592 5601 5611 5621 5628 5633 5639 5647 5649 5651 5658 5666 5671 5676 5684 5689 5694 5700 5709 5712 5716 5724 5730 5733 5738 5745 5748 5756 5764 5768
5414 5422 5432 5443 5455 5469 5483 5495 5509 5521 5534 5544 5555 5566 5579 5590 5599 5609 5616 5622 5631 5637 5641 5642 5646 5650 5654 5660 5666 5675 5679 5686 5691 5692 5699 5706 5720 5723 5725 5727 5732 5738 5742 5750 5758
5411 5418 5426 5439 5451 5466 5478 5490 5505 5515 5528 5538 5551 5562 5574 5582 5592 5603 5609 5616 5623 5626 5629 5631 5638 5646 5652 5658 5664 5668 5671 5674 5676 5678 5693 5698 5710 5711 5715 5719 5721 5726 5728 5735 5744
5405 5412 5420 5435 5448 5463 5475 5487 5499 5509 5522 5534 5546 5559 5571 5579 5589 5597 5601 5608 5612 5615 5619 5625 5634 5640 5642 5645 5650 5655 5658 5660 5663 5677 5675 5700 5692 5701 5707 5709 5710 5712 5719 5725 5731
5403 5411 5417 5428 5443 5455 5468 5479 5495 5507 5521 5535 5546 5557 5565 5575 5586 5592 5597 5602 5606 5608 5610 5617 5624 5628 5631 5635 5638 5641 5644 5650 5656 5663 5671 5679 5689 5695 5694 5695 5699 5702 5710 5717 5720
5396 5406 5413 5425 5437 5449 5462 5478 5495 5508 5520 5532 5542 5549 5557 5567 5574 5580 5585 5588 5594 5599 5605 5612 5618 5620 5625 5628 5627 5628 5644 5644 5649 5654 5664 5666 5689 5681 5680 5682 5687 5693 5696 5704 5708